Fort Wayne, IN

11:41 PM EDT on April 23, 2018 (GMT -0400)
Fort Wayne International

Weather History for KFWA - December, 2013

Change the Weather History Date:

Wednesday, December 18, 2013

  Actual Average Record
Temperature  
Mean Temperature 22 °F 28 °F  
Max Temperature 34 °F 35 °F 54 °F (1957)
Min Temperature 10 °F 21 °F -5 °F (1989)
Degree Days  
Heating Degree Days 43 37  
Month to date heating degree days 704 613  
Since 1 July heating degree days 2005 1830  
Cooling Degree Days 0 0  
Month to date cooling degree days 0 0  
Year to date cooling degree days 855 809  
Moisture  
Dew Point 14 °F    
Average Humidity 71    
Maximum Humidity 88    
Minimum Humidity 54    
Precipitation  
Precipitation 0.00 in 0.09 in 1.50 in (1924)
Month to date precipitation 0.86 1.63  
Year to date precipitation 40.21 37.20  
Snow  
Snow 0.00 in 0.30 in 5.20 in (1929)
Month to date snowfall 8.5 4.4  
Since 1 July snowfall 9.5 6.5  
Snow Depth 4.00 in    
Sea Level Pressure  
Sea Level Pressure 30.13 in    
Wind  
Wind Speed 12 mph (SW)    
Max Wind Speed 23 mph    
Max Gust Speed 28 mph    
Visibility 10 miles    
Events      
T = Trace of Precipitation, MM = Missing Value Source: NWS Daily Summary

Daily Weather History Graph

Daily Weather History Graph

Search for Another Location

Airport or City:

Astronomy

Dec. 18, 2013 Rise Set
Actual Time 8:00 AM EST 5:14 PM EST
Civil Twilight 7:29 AM EST 5:45 PM EST
Nautical Twilight 6:54 AM EST 6:20 PM EST
Astronomical Twilight 6:21 AM EST 6:53 PM EST
Moon 6:46 PM EST (12/18) 8:39 AM EST (12/18)
Length of Visible Light 10h 16m
Length of Day
9h 13m
Full, 98% of the Moon is Illuminated
Dec 18
Full
Dec 25
Last Quarter
Jan 1
New
Jan 7
First Quarter
Jan 15
Full

Hourly Weather History & Observations

Time (EST) Temp. Windchill Dew Point Humidity Pressure Visibility Wind Dir Wind Speed Gust Speed Precip Events Conditions
12:54 AM 21.0 °F 9.9 °F 15.1 °F 78% 30.11 in 10.0 mi WSW 10.4 mph - N/A   Partly Cloudy
1:54 AM 18.0 °F 5.4 °F 12.9 °F 81% 30.11 in 10.0 mi WSW 11.5 mph - N/A   Partly Cloudy
2:54 AM 12.9 °F 1.6 °F 9.0 °F 84% 30.12 in 10.0 mi SW 8.1 mph - N/A   Scattered Clouds
3:54 AM 14.0 °F 2.0 °F 10.9 °F 88% 30.14 in 10.0 mi SW 9.2 mph - N/A   Scattered Clouds
4:54 AM 16.0 °F 6.3 °F 12.9 °F 88% 30.14 in 10.0 mi WSW 6.9 mph - N/A   Mostly Cloudy
5:47 AM 17.6 °F 6.4 °F 12.2 °F 79% 30.12 in 10.0 mi WSW 9.2 mph - N/A   Mostly Cloudy
5:54 AM 19.9 °F 10.1 °F 16.0 °F 85% 30.15 in 10.0 mi WSW 8.1 mph - N/A   Mostly Cloudy
6:54 AM 21.0 °F 11.4 °F 17.1 °F 85% 30.16 in 10.0 mi WSW 8.1 mph - N/A   Mostly Cloudy
7:54 AM 21.9 °F 11.7 °F 17.1 °F 82% 30.19 in 10.0 mi West 9.2 mph - N/A   Mostly Cloudy
8:37 AM 19.4 °F 7.2 °F 14.0 °F 80% 30.16 in 10.0 mi WSW 11.5 mph - N/A   Scattered Clouds
8:54 AM 18.0 °F 4.8 °F 12.0 °F 78% 30.21 in 10.0 mi WSW 12.7 mph - N/A   Partly Cloudy
9:54 AM 17.1 °F 4.3 °F 10.9 °F 77% 30.23 in 10.0 mi WSW 11.5 mph - N/A   Scattered Clouds
10:54 AM 18.0 °F 5.4 °F 10.9 °F 74% 30.24 in 10.0 mi WSW 11.5 mph - N/A   Scattered Clouds
11:54 AM 19.9 °F 10.1 °F 12.0 °F 71% 30.25 in 10.0 mi WSW 8.1 mph - N/A   Scattered Clouds
12:54 PM 23.0 °F 11.1 °F 12.9 °F 65% 30.23 in 10.0 mi West 12.7 mph - N/A   Mostly Cloudy
1:54 PM 21.9 °F 10.4 °F 14.0 °F 72% 30.19 in 10.0 mi SSW 11.5 mph - N/A   Scattered Clouds
2:54 PM 23.0 °F 10.1 °F 14.0 °F 68% 30.17 in 10.0 mi SSW 15.0 mph - N/A   Scattered Clouds
3:54 PM 24.1 °F 15.2 °F 15.1 °F 69% 30.16 in 10.0 mi SSW 8.1 mph - N/A   Scattered Clouds
4:54 PM 21.9 °F 13.4 °F 14.0 °F 72% 30.12 in 10.0 mi SSE 6.9 mph - N/A   Scattered Clouds
5:54 PM 24.1 °F 12.5 °F 14.0 °F 65% 30.08 in 10.0 mi South 12.7 mph - N/A   Partly Cloudy
6:54 PM 25.0 °F 13.6 °F 14.0 °F 63% 30.04 in 10.0 mi South 12.7 mph - N/A   Partly Cloudy
7:54 PM 25.0 °F 13.1 °F 14.0 °F 63% 30.01 in 10.0 mi South 13.8 mph - N/A   Scattered Clouds
8:54 PM 28.0 °F 18.1 °F 15.1 °F 58% 30.01 in 10.0 mi South 11.5 mph - N/A   Scattered Clouds
9:54 PM 32.0 °F 20.8 °F 18.0 °F 56% 29.99 in 10.0 mi SSW 17.3 mph - N/A   Mostly Cloudy
10:54 PM 34.0 °F 22.4 °F 19.9 °F 56% 29.97 in 10.0 mi SSW 20.7 mph 27.6 mph N/A   Mostly Cloudy
11:54 PM 34.0 °F 22.7 °F 19.9 °F 56% 29.96 in 10.0 mi SW 19.6 mph - N/A   Mostly Cloudy